Tracking 22441 objects as of 1-Mar-2021
HD Live streaming from Space Station
objects crossing your sky now

DELTA 1 DEB (YO)

Track DELTA 1 DEB (YO) now!
10-day predictions


NORAD ID: 167
Int'l Code: 1961-017D
Perigee: 757.2 km
Apogee: 889.0 km
Inclination: 47.8 °
Period: 101.2 minutes
Semi major axis: 7194 km
RCS: 0.047 m2 (small)
Launch date: July 12, 1961
Source: United States (US)
Launch site: AIR FORCE EASTERN TEST RANGE (AFETR)

Note: This is SATELLITE DEBRIS
aabbcc
Your satellite tracking list
Your tracking list is empty




NASA's NSSDC Master Catalog

Two Line Element Set (TLE):
1   167U 61017D   21059.49934601 -.00000233  00000-0 -33773-4 0  9999
2   167  47.8441 267.8105 0091570 113.1616 247.8946 14.22783064 89592
Source of the keplerian elements: AFSPC